owner,sensor,date,latitude,longitude,air_pressure(mBar),qcFlag 
TABS,ioos:station:wmo:42043:1,2012-06-01T00:00:00Z,28.9818,-94.9186,1007.39,11111222 
TABS,ioos:station:wmo:42043:1,2012-06-01T00:30:00Z,28.9818,-94.9186,1007.71,11111222 
TABS,ioos:station:wmo:42043:1,2012-06-01T01:00:00Z,28.9818,-94.9186,1008.31,11111222 
TABS,ioos:station:wmo:42043:1,2012-06-01T01:30:00Z,28.9818,-94.9186,1008.96,11111222 
TABS,ioos:station:wmo:42043:1,2012-06-01T02:00:00Z,28.9818,-94.9186,1009.43,11111222 
TABS,ioos:station:wmo:42043:1,2012-06-01T02:30:00Z,28.9818,-94.9186,1009.82,11111222 
TABS,ioos:station:wmo:42043:1,2012-06-01T03:00:00Z,28.9818,-94.9186,1010.54,11111222 
TABS,ioos:station:wmo:42043:1,2012-06-01T03:30:00Z,28.9818,-94.9186,1010.7,11111222 
TABS,ioos:station:wmo:42043:1,2012-06-01T04:00:00Z,28.9818,-94.9186,1011.01,11111222 
TABS,ioos:station:wmo:42043:1,2012-06-01T04:30:00Z,28.9818,-94.9186,1011.36,11111222 
TABS,ioos:station:wmo:42043:1,2012-06-01T05:00:00Z,28.9818,-94.9186,1011.83,11111222 
TABS,ioos:station:wmo:42043:1,2012-06-01T05:30:00Z,28.9818,-94.9186,1011.78,11111222 
TABS,ioos:station:wmo:42043:1,2012-06-01T06:00:00Z,28.9818,-94.9186,1011.94,11111222 
TABS,ioos:station:wmo:42043:1,2012-06-01T06:30:00Z,28.9818,-94.9186,1011.75,11111222 
TABS,ioos:station:wmo:42043:1,2012-06-01T07:00:00Z,28.9818,-94.9186,1011.43,11111222 
TABS,ioos:station:wmo:42043:1,2012-06-01T07:30:00Z,28.9818,-94.9186,1011.16,11111222 
TABS,ioos:station:wmo:42043:1,2012-06-01T08:00:00Z,28.9818,-94.9186,1011.17,11111222 
TABS,ioos:station:wmo:42043:1,2012-06-01T08:30:00Z,28.9818,-94.9186,1011.08,11111222 
TABS,ioos:station:wmo:42043:1,2012-06-01T09:00:00Z,28.9818,-94.9186,1011.25,11111222 
TABS,ioos:station:wmo:42043:1,2012-06-01T09:30:00Z,28.9818,-94.9186,1011.25,11111222 
TABS,ioos:station:wmo:42043:1,2012-06-01T10:00:00Z,28.9818,-94.9186,1010.98,11111222 
TABS,ioos:station:wmo:42043:1,2012-06-01T10:30:00Z,28.9818,-94.9186,1011.15,11111222 
TABS,ioos:station:wmo:42043:1,2012-06-01T11:00:00Z,28.9818,-94.9186,1011.62,11111222 
TABS,ioos:station:wmo:42043:1,2012-06-01T11:30:00Z,28.9818,-94.9186,1012.1,11111222 
TABS,ioos:station:wmo:42043:1,2012-06-01T12:00:00Z,28.9818,-94.9186,1012.74,11111222 
TABS,ioos:station:wmo:42043:1,2012-06-01T12:30:00Z,28.9818,-94.9186,1013.37,11111222 
TABS,ioos:station:wmo:42043:1,2012-06-01T13:00:00Z,28.9818,-94.9186,1014.06,11111222 
TABS,ioos:station:wmo:42043:1,2012-06-01T13:30:00Z,28.9818,-94.9186,1014.32,11111222 
TABS,ioos:station:wmo:42043:1,2012-06-01T14:00:00Z,28.9818,-94.9186,1014.47,11111222 
TABS,ioos:station:wmo:42043:1,2012-06-01T14:30:00Z,28.9818,-94.9186,1015.14,11111222 
TABS,ioos:station:wmo:42043:1,2012-06-01T15:00:00Z,28.9818,-94.9186,1014.67,11111222 
TABS,ioos:station:wmo:42043:1,2012-06-01T15:30:00Z,28.9818,-94.9186,1014.78,11111222 
TABS,ioos:station:wmo:42043:1,2012-06-01T16:00:00Z,28.9818,-94.9186,1015.03,11111222 
TABS,ioos:station:wmo:42043:1,2012-06-01T16:30:00Z,28.9818,-94.9186,1015.12,11111222 
TABS,ioos:station:wmo:42043:1,2012-06-01T17:00:00Z,28.9818,-94.9186,1015.11,11111222 
TABS,ioos:station:wmo:42043:1,2012-06-01T17:30:00Z,28.9818,-94.9186,1014.86,11111222 
TABS,ioos:station:wmo:42043:1,2012-06-01T18:00:00Z,28.9818,-94.9186,1014.33,11111222 
TABS,ioos:station:wmo:42043:1,2012-06-01T18:30:00Z,28.9818,-94.9186,1013.9,11111222 
TABS,ioos:station:wmo:42043:1,2012-06-01T19:00:00Z,28.9818,-94.9186,1013.62,11111222 
TABS,ioos:station:wmo:42043:1,2012-06-01T19:30:00Z,28.9818,-94.9186,1013.44,11111222 
TABS,ioos:station:wmo:42043:1,2012-06-01T20:00:00Z,28.9818,-94.9186,1013.07,11111222 
TABS,ioos:station:wmo:42043:1,2012-06-01T20:30:00Z,28.9818,-94.9186,1012.85,11111222 
TABS,ioos:station:wmo:42043:1,2012-06-01T21:00:00Z,28.9818,-94.9186,1012.49,11111222 
TABS,ioos:station:wmo:42043:1,2012-06-01T21:30:00Z,28.9818,-94.9186,1012.14,11111222 
TABS,ioos:station:wmo:42043:1,2012-06-01T22:00:00Z,28.9818,-94.9186,1012.06,11111222 
TABS,ioos:station:wmo:42043:1,2012-06-01T22:30:00Z,28.9818,-94.9186,1011.6,11111222 
TABS,ioos:station:wmo:42043:1,2012-06-01T23:00:00Z,28.9818,-94.9186,1011.41,11111222 
TABS,ioos:station:wmo:42043:1,2012-06-01T23:30:00Z,28.9818,-94.9186,1011.07,11111222 
TABS,ioos:station:wmo:42043:1,2012-06-02T00:00:00Z,28.9818,-94.9186,1010.91,11111222 
TABS,ioos:station:wmo:42043:1,2012-06-02T00:30:00Z,28.9818,-94.9186,1010.98,11111222 
TABS,ioos:station:wmo:42043:1,2012-06-02T01:00:00Z,28.9818,-94.9186,1011.22,11111222 
TABS,ioos:station:wmo:42043:1,2012-06-02T01:30:00Z,28.9818,-94.9186,1011.53,11111222 
TABS,ioos:station:wmo:42043:1,2012-06-02T02:00:00Z,28.9818,-94.9186,1011.9,11111222 
TABS,ioos:station:wmo:42043:1,2012-06-02T02:30:00Z,28.9818,-94.9186,1012.23,11111222 
TABS,ioos:station:wmo:42043:1,2012-06-02T03:00:00Z,28.9818,-94.9186,1012.82,11111222 
TABS,ioos:station:wmo:42043:1,2012-06-02T03:30:00Z,28.9818,-94.9186,1013.22,11111222 
TABS,ioos:station:wmo:42043:1,2012-06-02T04:00:00Z,28.9818,-94.9186,1013.24,11111222 
TABS,ioos:station:wmo:42043:1,2012-06-02T04:30:00Z,28.9818,-94.9186,1013.67,11111222 
TABS,ioos:station:wmo:42043:1,2012-06-02T05:00:00Z,28.9818,-94.9186,1013.9,11111222 
TABS,ioos:station:wmo:42043:1,2012-06-02T05:30:00Z,28.9818,-94.9186,1014.43,11111222 
TABS,ioos:station:wmo:42043:1,2012-06-02T06:00:00Z,28.9818,-94.9186,1014.47,11111222 
TABS,ioos:station:wmo:42043:1,2012-06-02T06:30:00Z,28.9818,-94.9186,1014.25,11111222 
TABS,ioos:station:wmo:42043:1,2012-06-02T07:00:00Z,28.9818,-94.9186,1013.96,11111222 
TABS,ioos:station:wmo:42043:1,2012-06-02T07:30:00Z,28.9818,-94.9186,1013.93,11111222 
TABS,ioos:station:wmo:42043:1,2012-06-02T08:00:00Z,28.9818,-94.9186,1013.26,11111222 
TABS,ioos:station:wmo:42043:1,2012-06-02T08:30:00Z,28.9818,-94.9186,1012.79,11111222 
TABS,ioos:station:wmo:42043:1,2012-06-02T09:00:00Z,28.9818,-94.9186,1012.61,11111222 
TABS,ioos:station:wmo:42043:1,2012-06-02T09:30:00Z,28.9818,-94.9186,1012.6,11111222 
TABS,ioos:station:wmo:42043:1,2012-06-02T10:00:00Z,28.9818,-94.9186,1012.33,11111222 
TABS,ioos:station:wmo:42043:1,2012-06-02T10:30:00Z,28.9818,-94.9186,1012.44,11111222 
TABS,ioos:station:wmo:42043:1,2012-06-02T11:00:00Z,28.9818,-94.9186,1013.24,11111222 
TABS,ioos:station:wmo:42043:1,2012-06-02T11:30:00Z,28.9818,-94.9186,1013.51,11111222 
TABS,ioos:station:wmo:42043:1,2012-06-02T12:00:00Z,28.9818,-94.9186,1014.1,11111222 
TABS,ioos:station:wmo:42043:1,2012-06-02T12:30:00Z,28.9818,-94.9186,1014.15,11111222 
TABS,ioos:station:wmo:42043:1,2012-06-02T13:00:00Z,28.9818,-94.9186,1014.53,11111222 
TABS,ioos:station:wmo:42043:1,2012-06-02T13:30:00Z,28.9818,-94.9186,1014.71,11111222 
TABS,ioos:station:wmo:42043:1,2012-06-02T14:00:00Z,28.9818,-94.9186,1014.77,11111222 
TABS,ioos:station:wmo:42043:1,2012-06-02T14:30:00Z,28.9818,-94.9186,1014.81,11111222 
TABS,ioos:station:wmo:42043:1,2012-06-02T15:00:00Z,28.9818,-94.9186,1014.65,11111222 
TABS,ioos:station:wmo:42043:1,2012-06-02T15:30:00Z,28.9818,-94.9186,1014.72,11111222 
TABS,ioos:station:wmo:42043:1,2012-06-02T16:00:00Z,28.9818,-94.9186,1015.11,11111222 
TABS,ioos:station:wmo:42043:1,2012-06-02T16:30:00Z,28.9818,-94.9186,1015.02,11111222 
TABS,ioos:station:wmo:42043:1,2012-06-02T17:00:00Z,28.9818,-94.9186,1015.12,11111222 
TABS,ioos:station:wmo:42043:1,2012-06-02T17:30:00Z,28.9818,-94.9186,1014.82,11111222 
TABS,ioos:station:wmo:42043:1,2012-06-02T18:00:00Z,28.9818,-94.9186,1014.67,11111222 
TABS,ioos:station:wmo:42043:1,2012-06-02T18:30:00Z,28.9818,-94.9186,1014.67,11111222 
TABS,ioos:station:wmo:42043:1,2012-06-02T19:00:00Z,28.9818,-94.9186,1014.48,11111222 
TABS,ioos:station:wmo:42043:1,2012-06-02T19:30:00Z,28.9818,-94.9186,1014.24,11111222 
TABS,ioos:station:wmo:42043:1,2012-06-02T20:00:00Z,28.9818,-94.9186,1013.99,11111222 
TABS,ioos:station:wmo:42043:1,2012-06-02T20:30:00Z,28.9818,-94.9186,1013.7,11111222 
TABS,ioos:station:wmo:42043:1,2012-06-02T21:00:00Z,28.9818,-94.9186,1013.48,11111222 
TABS,ioos:station:wmo:42043:1,2012-06-02T21:30:00Z,28.9818,-94.9186,1013.25,11111222 
TABS,ioos:station:wmo:42043:1,2012-06-02T22:00:00Z,28.9818,-94.9186,1013.01,11111222 
TABS,ioos:station:wmo:42043:1,2012-06-02T22:30:00Z,28.9818,-94.9186,1012.63,11111222 
TABS,ioos:station:wmo:42043:1,2012-06-02T23:00:00Z,28.9818,-94.9186,1012.21,11111222 
TABS,ioos:station:wmo:42043:1,2012-06-02T23:30:00Z,28.9818,-94.9186,1012.28,11111222 
TABS,ioos:station:wmo:42043:1,2012-06-03T00:00:00Z,28.9818,-94.9186,1012.32,11111222 
TABS,ioos:station:wmo:42043:1,2012-06-03T00:30:00Z,28.9818,-94.9186,1012.29,11111222 
TABS,ioos:station:wmo:42043:1,2012-06-03T01:00:00Z,28.9818,-94.9186,1012.38,11111222 
TABS,ioos:station:wmo:42043:1,2012-06-03T01:30:00Z,28.9818,-94.9186,1012.87,11111222 
TABS,ioos:station:wmo:42043:1,2012-06-03T02:00:00Z,28.9818,-94.9186,1013.01,11111222 
TABS,ioos:station:wmo:42043:1,2012-06-03T02:30:00Z,28.9818,-94.9186,1013.43,11111222 
TABS,ioos:station:wmo:42043:1,2012-06-03T03:00:00Z,28.9818,-94.9186,1013.75,11111222 
TABS,ioos:station:wmo:42043:1,2012-06-03T03:30:00Z,28.9818,-94.9186,1013.87,11111222 
TABS,ioos:station:wmo:42043:1,2012-06-03T04:00:00Z,28.9818,-94.9186,1013.93,11111222 
TABS,ioos:station:wmo:42043:1,2012-06-03T04:30:00Z,28.9818,-94.9186,1014.08,11111222 
TABS,ioos:station:wmo:42043:1,2012-06-03T05:00:00Z,28.9818,-94.9186,1013.93,11111222 
TABS,ioos:station:wmo:42043:1,2012-06-03T05:30:00Z,28.9818,-94.9186,1013.94,11111222 
TABS,ioos:station:wmo:42043:1,2012-06-03T06:00:00Z,28.9818,-94.9186,1013.84,11111222 
TABS,ioos:station:wmo:42043:1,2012-06-03T06:30:00Z,28.9818,-94.9186,1013.6,11111222 
TABS,ioos:station:wmo:42043:1,2012-06-03T07:00:00Z,28.9818,-94.9186,1013.39,11111222 
TABS,ioos:station:wmo:42043:1,2012-06-03T07:30:00Z,28.9818,-94.9186,1013.21,11111222 
TABS,ioos:station:wmo:42043:1,2012-06-03T08:00:00Z,28.9818,-94.9186,1013.08,11111222 
TABS,ioos:station:wmo:42043:1,2012-06-03T08:30:00Z,28.9818,-94.9186,1013.18,11111222 
TABS,ioos:station:wmo:42043:1,2012-06-03T09:00:00Z,28.9818,-94.9186,1013.2,11111222 
TABS,ioos:station:wmo:42043:1,2012-06-03T09:30:00Z,28.9818,-94.9186,1013.24,11111222 
TABS,ioos:station:wmo:42043:1,2012-06-03T10:00:00Z,28.9818,-94.9186,1013.08,11111222 
TABS,ioos:station:wmo:42043:1,2012-06-03T10:30:00Z,28.9818,-94.9186,1013.24,11111222 
TABS,ioos:station:wmo:42043:1,2012-06-03T11:00:00Z,28.9818,-94.9186,1013.25,11111222 
TABS,ioos:station:wmo:42043:1,2012-06-03T11:30:00Z,28.9818,-94.9186,1013.38,11111222 
TABS,ioos:station:wmo:42043:1,2012-06-03T12:00:00Z,28.9818,-94.9186,1013.82,11111222 
TABS,ioos:station:wmo:42043:1,2012-06-03T12:30:00Z,28.9818,-94.9186,1014.23,11111222 
TABS,ioos:station:wmo:42043:1,2012-06-03T13:00:00Z,28.9818,-94.9186,1014.54,11111222 
TABS,ioos:station:wmo:42043:1,2012-06-03T13:30:00Z,28.9818,-94.9186,1014.62,11111222 
TABS,ioos:station:wmo:42043:1,2012-06-03T14:00:00Z,28.9818,-94.9186,1014.9,11111222 
TABS,ioos:station:wmo:42043:1,2012-06-03T14:30:00Z,28.9818,-94.9186,1015.24,11111222 
TABS,ioos:station:wmo:42043:1,2012-06-03T15:00:00Z,28.9818,-94.9186,1015.31,11111222 
TABS,ioos:station:wmo:42043:1,2012-06-03T15:30:00Z,28.9818,-94.9186,1015.2,11111222 
TABS,ioos:station:wmo:42043:1,2012-06-03T16:00:00Z,28.9818,-94.9186,1015.07,11111222 
TABS,ioos:station:wmo:42043:1,2012-06-03T16:30:00Z,28.9818,-94.9186,1015.04,11111222 
TABS,ioos:station:wmo:42043:1,2012-06-03T17:00:00Z,28.9818,-94.9186,1014.91,11111222 
TABS,ioos:station:wmo:42043:1,2012-06-03T17:30:00Z,28.9818,-94.9186,1014.67,11111222 
TABS,ioos:station:wmo:42043:1,2012-06-03T18:00:00Z,28.9818,-94.9186,1014.47,11111222 
TABS,ioos:station:wmo:42043:1,2012-06-03T18:30:00Z,28.9818,-94.9186,1014.39,11111222 
TABS,ioos:station:wmo:42043:1,2012-06-03T19:00:00Z,28.9818,-94.9186,1014.42,11111222 
TABS,ioos:station:wmo:42043:1,2012-06-03T19:30:00Z,28.9818,-94.9186,1014.1,11111222 
TABS,ioos:station:wmo:42043:1,2012-06-03T20:00:00Z,28.9818,-94.9186,1013.88,11111222 
TABS,ioos:station:wmo:42043:1,2012-06-03T20:30:00Z,28.9818,-94.9186,1013.47,11111222 
TABS,ioos:station:wmo:42043:1,2012-06-03T21:00:00Z,28.9818,-94.9186,1013.25,11111222 
TABS,ioos:station:wmo:42043:1,2012-06-03T21:30:00Z,28.9818,-94.9186,1012.9,11111222 
TABS,ioos:station:wmo:42043:1,2012-06-03T22:00:00Z,28.9818,-94.9186,1012.74,11111222 
TABS,ioos:station:wmo:42043:1,2012-06-03T22:30:00Z,28.9818,-94.9186,1012.44,11111222 
TABS,ioos:station:wmo:42043:1,2012-06-03T23:00:00Z,28.9818,-94.9186,1012.36,11111222 
TABS,ioos:station:wmo:42043:1,2012-06-03T23:30:00Z,28.9818,-94.9186,1012.24,11111222 
TABS,ioos:station:wmo:42043:1,2012-06-04T00:00:00Z,28.9818,-94.9186,1012.31,11111222 
TABS,ioos:station:wmo:42043:1,2012-06-04T00:30:00Z,28.9818,-94.9186,1012.48,11111222 
TABS,ioos:station:wmo:42043:1,2012-06-04T01:00:00Z,28.9818,-94.9186,1012.44,11111222 
TABS,ioos:station:wmo:42043:1,2012-06-04T01:30:00Z,28.9818,-94.9186,1012.51,11111222 
TABS,ioos:station:wmo:42043:1,2012-06-04T02:00:00Z,28.9818,-94.9186,1012.52,11111222 
TABS,ioos:station:wmo:42043:1,2012-06-04T02:30:00Z,28.9818,-94.9186,1012.77,11111222 
TABS,ioos:station:wmo:42043:1,2012-06-04T03:00:00Z,28.9818,-94.9186,1012.89,11111222 
TABS,ioos:station:wmo:42043:1,2012-06-04T03:30:00Z,28.9818,-94.9186,1013.06,11111222 
TABS,ioos:station:wmo:42043:1,2012-06-04T04:00:00Z,28.9818,-94.9186,1013.25,11111222 
TABS,ioos:station:wmo:42043:1,2012-06-04T04:30:00Z,28.9818,-94.9186,1013.26,11111222 
TABS,ioos:station:wmo:42043:1,2012-06-04T05:00:00Z,28.9818,-94.9186,1013.37,11111222 
TABS,ioos:station:wmo:42043:1,2012-06-04T05:30:00Z,28.9818,-94.9186,1013.87,11111222 
TABS,ioos:station:wmo:42043:1,2012-06-04T06:00:00Z,28.9818,-94.9186,1013.67,11111222 
TABS,ioos:station:wmo:42043:1,2012-06-04T06:30:00Z,28.9818,-94.9186,1013.3,11111222 
TABS,ioos:station:wmo:42043:1,2012-06-04T07:00:00Z,28.9818,-94.9186,1012.89,11111222 
TABS,ioos:station:wmo:42043:1,2012-06-04T07:30:00Z,28.9818,-94.9186,1012.39,11111222 
TABS,ioos:station:wmo:42043:1,2012-06-04T08:00:00Z,28.9818,-94.9186,1012.25,11111222 
TABS,ioos:station:wmo:42043:1,2012-06-04T08:30:00Z,28.9818,-94.9186,1012.57,11111222 
TABS,ioos:station:wmo:42043:1,2012-06-04T09:00:00Z,28.9818,-94.9186,1012.33,11111222 
TABS,ioos:station:wmo:42043:1,2012-06-04T09:30:00Z,28.9818,-94.9186,1012.22,11111222 
TABS,ioos:station:wmo:42043:1,2012-06-04T10:00:00Z,28.9818,-94.9186,1012.0,11111222 
TABS,ioos:station:wmo:42043:1,2012-06-04T10:30:00Z,28.9818,-94.9186,1011.96,11111222 
TABS,ioos:station:wmo:42043:1,2012-06-04T11:00:00Z,28.9818,-94.9186,1012.28,11111222 
TABS,ioos:station:wmo:42043:1,2012-06-04T11:30:00Z,28.9818,-94.9186,1011.87,11111222 
TABS,ioos:station:wmo:42043:1,2012-06-04T12:00:00Z,28.9818,-94.9186,1011.54,11111222 
TABS,ioos:station:wmo:42043:1,2012-06-04T12:30:00Z,28.9818,-94.9186,1011.87,11111222 
TABS,ioos:station:wmo:42043:1,2012-06-04T13:00:00Z,28.9818,-94.9186,1012.14,11111222 
TABS,ioos:station:wmo:42043:1,2012-06-04T13:30:00Z,28.9818,-94.9186,1012.34,11111222 
TABS,ioos:station:wmo:42043:1,2012-06-04T14:00:00Z,28.9818,-94.9186,1012.5,11111222 
TABS,ioos:station:wmo:42043:1,2012-06-04T14:30:00Z,28.9818,-94.9186,1012.61,11111222 
TABS,ioos:station:wmo:42043:1,2012-06-04T15:00:00Z,28.9818,-94.9186,1012.53,11111222 
TABS,ioos:station:wmo:42043:1,2012-06-04T15:30:00Z,28.9818,-94.9186,1012.49,11111222 
TABS,ioos:station:wmo:42043:1,2012-06-04T16:00:00Z,28.9818,-94.9186,1012.46,11111222 
TABS,ioos:station:wmo:42043:1,2012-06-04T16:30:00Z,28.9818,-94.9186,1012.58,11111222 
TABS,ioos:station:wmo:42043:1,2012-06-04T17:00:00Z,28.9818,-94.9186,1012.59,11111222 
TABS,ioos:station:wmo:42043:1,2012-06-04T17:30:00Z,28.9818,-94.9186,1012.43,11111222 
TABS,ioos:station:wmo:42043:1,2012-06-04T18:00:00Z,28.9818,-94.9186,1012.33,11111222 
TABS,ioos:station:wmo:42043:1,2012-06-04T18:30:00Z,28.9818,-94.9186,1011.97,11111222 
TABS,ioos:station:wmo:42043:1,2012-06-04T19:00:00Z,28.9818,-94.9186,1011.84,11111222 
TABS,ioos:station:wmo:42043:1,2012-06-04T19:30:00Z,28.9818,-94.9186,1011.95,11111222 
TABS,ioos:station:wmo:42043:1,2012-06-04T20:00:00Z,28.9818,-94.9186,1011.76,11111222 
TABS,ioos:station:wmo:42043:1,2012-06-04T20:30:00Z,28.9818,-94.9186,1011.22,11111222 
TABS,ioos:station:wmo:42043:1,2012-06-04T21:00:00Z,28.9818,-94.9186,1011.09,11111222 
TABS,ioos:station:wmo:42043:1,2012-06-04T21:30:00Z,28.9818,-94.9186,1011.26,11111222 
TABS,ioos:station:wmo:42043:1,2012-06-04T22:00:00Z,28.9818,-94.9186,1010.87,11111222 
TABS,ioos:station:wmo:42043:1,2012-06-04T22:30:00Z,28.9818,-94.9186,1010.46,11111222 
TABS,ioos:station:wmo:42043:1,2012-06-04T23:00:00Z,28.9818,-94.9186,1010.03,11111222 
TABS,ioos:station:wmo:42043:1,2012-06-04T23:30:00Z,28.9818,-94.9186,1009.7,11111222 
TABS,ioos:station:wmo:42043:1,2012-06-05T00:00:00Z,28.9818,-94.9186,1009.3,11111222 
TABS,ioos:station:wmo:42043:1,2012-06-05T00:30:00Z,28.9818,-94.9186,1009.23,11111222 
TABS,ioos:station:wmo:42043:1,2012-06-05T01:00:00Z,28.9818,-94.9186,1008.98,11111222 
TABS,ioos:station:wmo:42043:1,2012-06-05T01:30:00Z,28.9818,-94.9186,1008.91,11111222 
TABS,ioos:station:wmo:42043:1,2012-06-05T02:00:00Z,28.9818,-94.9186,1009.1,11111222 
TABS,ioos:station:wmo:42043:1,2012-06-05T02:30:00Z,28.9818,-94.9186,1009.42,11111222 
TABS,ioos:station:wmo:42043:1,2012-06-05T03:00:00Z,28.9818,-94.9186,1009.68,11111222 
TABS,ioos:station:wmo:42043:1,2012-06-05T03:30:00Z,28.9818,-94.9186,1009.81,11111222 
TABS,ioos:station:wmo:42043:1,2012-06-05T04:00:00Z,28.9818,-94.9186,1009.75,11111222 
TABS,ioos:station:wmo:42043:1,2012-06-05T04:30:00Z,28.9818,-94.9186,1009.68,11111222 
TABS,ioos:station:wmo:42043:1,2012-06-05T05:00:00Z,28.9818,-94.9186,1009.34,11111222 
TABS,ioos:station:wmo:42043:1,2012-06-05T05:30:00Z,28.9818,-94.9186,1008.98,11111222 
TABS,ioos:station:wmo:42043:1,2012-06-05T06:00:00Z,28.9818,-94.9186,1009.06,11111222 
TABS,ioos:station:wmo:42043:1,2012-06-05T06:30:00Z,28.9818,-94.9186,1009.14,11111222 
TABS,ioos:station:wmo:42043:1,2012-06-05T07:00:00Z,28.9818,-94.9186,1009.29,11111222 
TABS,ioos:station:wmo:42043:1,2012-06-05T07:30:00Z,28.9818,-94.9186,1009.06,11111222 
TABS,ioos:station:wmo:42043:1,2012-06-05T08:00:00Z,28.9818,-94.9186,1009.17,11111222 
TABS,ioos:station:wmo:42043:1,2012-06-05T08:30:00Z,28.9818,-94.9186,1009.14,11111222 
TABS,ioos:station:wmo:42043:1,2012-06-05T09:00:00Z,28.9818,-94.9186,1009.26,11111222 
TABS,ioos:station:wmo:42043:1,2012-06-05T09:30:00Z,28.9818,-94.9186,1009.56,11111222 
TABS,ioos:station:wmo:42043:1,2012-06-05T10:00:00Z,28.9818,-94.9186,1009.59,11111222 
TABS,ioos:station:wmo:42043:1,2012-06-05T10:30:00Z,28.9818,-94.9186,1009.38,11111222 
TABS,ioos:station:wmo:42043:1,2012-06-05T11:00:00Z,28.9818,-94.9186,1009.45,11111222 
TABS,ioos:station:wmo:42043:1,2012-06-05T11:30:00Z,28.9818,-94.9186,1009.28,11111222 
TABS,ioos:station:wmo:42043:1,2012-06-05T12:00:00Z,28.9818,-94.9186,1009.42,11111222 
TABS,ioos:station:wmo:42043:1,2012-06-05T12:30:00Z,28.9818,-94.9186,1009.72,11111222 
TABS,ioos:station:wmo:42043:1,2012-06-05T13:00:00Z,28.9818,-94.9186,1009.94,11111222 
TABS,ioos:station:wmo:42043:1,2012-06-05T13:30:00Z,28.9818,-94.9186,1009.94,11111222 
TABS,ioos:station:wmo:42043:1,2012-06-05T14:00:00Z,28.9818,-94.9186,1009.81,11111222 
TABS,ioos:station:wmo:42043:1,2012-06-05T14:30:00Z,28.9818,-94.9186,1009.83,11111222 
TABS,ioos:station:wmo:42043:1,2012-06-05T15:00:00Z,28.9818,-94.9186,1009.76,11111222 
TABS,ioos:station:wmo:42043:1,2012-06-05T15:30:00Z,28.9818,-94.9186,1009.6,11111222 
TABS,ioos:station:wmo:42043:1,2012-06-05T16:00:00Z,28.9818,-94.9186,1009.41,11111222 
TABS,ioos:station:wmo:42043:1,2012-06-05T16:30:00Z,28.9818,-94.9186,1009.33,11111222 
TABS,ioos:station:wmo:42043:1,2012-06-05T17:00:00Z,28.9818,-94.9186,1009.13,11111222 
TABS,ioos:station:wmo:42043:1,2012-06-05T17:30:00Z,28.9818,-94.9186,1008.94,11111222 
TABS,ioos:station:wmo:42043:1,2012-06-05T18:00:00Z,28.9818,-94.9186,1008.65,11111222 
TABS,ioos:station:wmo:42043:1,2012-06-05T18:30:00Z,28.9818,-94.9186,1008.45,11111222 
TABS,ioos:station:wmo:42043:1,2012-06-05T19:00:00Z,28.9818,-94.9186,1008.2,11111222 
TABS,ioos:station:wmo:42043:1,2012-06-05T19:30:00Z,28.9818,-94.9186,1007.95,11111222 
TABS,ioos:station:wmo:42043:1,2012-06-05T20:00:00Z,28.9818,-94.9186,1007.64,11111222 
TABS,ioos:station:wmo:42043:1,2012-06-05T20:30:00Z,28.9818,-94.9186,1007.63,11111222 
TABS,ioos:station:wmo:42043:1,2012-06-05T21:00:00Z,28.9818,-94.9186,1007.3,11111222 
TABS,ioos:station:wmo:42043:1,2012-06-05T21:30:00Z,28.9818,-94.9186,1006.99,11111222 
TABS,ioos:station:wmo:42043:1,2012-06-05T22:00:00Z,28.9818,-94.9186,1006.95,11111222 
TABS,ioos:station:wmo:42043:1,2012-06-05T22:30:00Z,28.9818,-94.9186,1006.77,11111222 
TABS,ioos:station:wmo:42043:1,2012-06-05T23:00:00Z,28.9818,-94.9186,1006.82,11111222 
TABS,ioos:station:wmo:42043:1,2012-06-05T23:30:00Z,28.9818,-94.9186,1006.94,11111222 
TABS,ioos:station:wmo:42043:1,2012-06-06T00:00:00Z,28.9818,-94.9186,1006.84,11111222 
TABS,ioos:station:wmo:42043:1,2012-06-06T00:30:00Z,28.9818,-94.9186,1007.03,11111222 
TABS,ioos:station:wmo:42043:1,2012-06-06T01:00:00Z,28.9818,-94.9186,1007.08,11111222 
TABS,ioos:station:wmo:42043:1,2012-06-06T01:30:00Z,28.9818,-94.9186,1007.36,11111222 
TABS,ioos:station:wmo:42043:1,2012-06-06T02:00:00Z,28.9818,-94.9186,1007.59,11111222 
TABS,ioos:station:wmo:42043:1,2012-06-06T02:30:00Z,28.9818,-94.9186,1007.63,11111222 
TABS,ioos:station:wmo:42043:1,2012-06-06T03:00:00Z,28.9818,-94.9186,1008.07,11111222 
TABS,ioos:station:wmo:42043:1,2012-06-06T03:30:00Z,28.9818,-94.9186,1008.35,11111222 
TABS,ioos:station:wmo:42043:1,2012-06-06T04:00:00Z,28.9818,-94.9186,1008.33,11111222 
TABS,ioos:station:wmo:42043:1,2012-06-06T04:30:00Z,28.9818,-94.9186,1008.21,11111222 
TABS,ioos:station:wmo:42043:1,2012-06-06T05:00:00Z,28.9818,-94.9186,1008.22,11111222 
TABS,ioos:station:wmo:42043:1,2012-06-06T05:30:00Z,28.9818,-94.9186,1008.28,11111222 
TABS,ioos:station:wmo:42043:1,2012-06-06T06:00:00Z,28.9818,-94.9186,1008.22,11111222 
TABS,ioos:station:wmo:42043:1,2012-06-06T06:30:00Z,28.9818,-94.9186,1008.02,11111222 
TABS,ioos:station:wmo:42043:1,2012-06-06T07:00:00Z,28.9818,-94.9186,1007.79,11111222 
TABS,ioos:station:wmo:42043:1,2012-06-06T07:30:00Z,28.9818,-94.9186,1007.45,11111222 
TABS,ioos:station:wmo:42043:1,2012-06-06T08:00:00Z,28.9818,-94.9186,1007.44,11111222 
TABS,ioos:station:wmo:42043:1,2012-06-06T08:30:00Z,28.9818,-94.9186,1007.52,11111222 
TABS,ioos:station:wmo:42043:1,2012-06-06T09:00:00Z,28.9818,-94.9186,1007.54,11111222 
TABS,ioos:station:wmo:42043:1,2012-06-06T09:30:00Z,28.9818,-94.9186,1007.75,11111222 
TABS,ioos:station:wmo:42043:1,2012-06-06T10:00:00Z,28.9818,-94.9186,1007.91,11111222 
TABS,ioos:station:wmo:42043:1,2012-06-06T10:30:00Z,28.9818,-94.9186,1007.94,11111222 
TABS,ioos:station:wmo:42043:1,2012-06-06T11:00:00Z,28.9818,-94.9186,1008.07,11111222 
TABS,ioos:station:wmo:42043:1,2012-06-06T11:30:00Z,28.9818,-94.9186,1008.29,11111222 
TABS,ioos:station:wmo:42043:1,2012-06-06T12:00:00Z,28.9818,-94.9186,1008.36,11111222 
TABS,ioos:station:wmo:42043:1,2012-06-06T12:30:00Z,28.9818,-94.9186,1008.8,11111222 
TABS,ioos:station:wmo:42043:1,2012-06-06T13:00:00Z,28.9818,-94.9186,1008.95,11111222 
TABS,ioos:station:wmo:42043:1,2012-06-06T13:30:00Z,28.9818,-94.9186,1009.22,11111222 
TABS,ioos:station:wmo:42043:1,2012-06-06T14:00:00Z,28.9818,-94.9186,1009.39,11111222 
TABS,ioos:station:wmo:42043:1,2012-06-06T14:30:00Z,28.9818,-94.9186,1009.51,11111222 
TABS,ioos:station:wmo:42043:1,2012-06-06T15:00:00Z,28.9818,-94.9186,1009.43,11111222 
TABS,ioos:station:wmo:42043:1,2012-06-06T15:30:00Z,28.9818,-94.9186,1009.52,11111222 
TABS,ioos:station:wmo:42043:1,2012-06-06T16:00:00Z,28.9818,-94.9186,1009.55,11111222 
TABS,ioos:station:wmo:42043:1,2012-06-06T16:30:00Z,28.9818,-94.9186,1009.78,11111222 
TABS,ioos:station:wmo:42043:1,2012-06-06T17:00:00Z,28.9818,-94.9186,1009.94,11111222 
TABS,ioos:station:wmo:42043:1,2012-06-06T17:30:00Z,28.9818,-94.9186,1010.06,11111222 
TABS,ioos:station:wmo:42043:1,2012-06-06T18:00:00Z,28.9818,-94.9186,1009.94,11111222 
TABS,ioos:station:wmo:42043:1,2012-06-06T18:30:00Z,28.9818,-94.9186,1010.02,11111222 